Weather Roundup
Issued by NWS

Home | Current Version | Previous Version | Text Only | Print | Product List | Glossary On
Versions: 1 2 3 4 5 6 7 8 9 10 11 12 13 14 15 16 17 18 19 20 21 22 23 24 25 26 27 28 29 30 31 32 33 34 35 36 37 38 39 40 41 42 43 44 45 46 47 48 49 50
695
NZUS93 KARX 232110
HRRWXR

CURRENT HOURLY OBSERVATIONS ACROSS
MUCH OF THE UPPER MISSISSIPPI VALLEY
NATIONAL WEATHER SERVICE LA CROSSE WI
400 PM CDT TUE AUG 23 2016


...SOUTHEAST MINNESOTA...


CITY           SKY/WX    TMP DP  RH WIND       PRES   REMARKS
ROCHESTER      CLOUDY    78  65  63 S15G25    29.98F
ROCHESTER/MAYO FAIR      79  63  58 SE17G26   29.98R
WINONA         PTSUNNY   81  63  54 S7        29.97F
AUSTIN         CLOUDY    77  63  61 S14G21    29.96F
ALBERT LEA     CLOUDY    79  63  57 S16G24    29.94S
DODGE CENTER   CLOUDY    77  64  65 S20       29.97S
PRESTON        CLOUDY    78  64  62 S15G23    30.00S
OWATONNA       CLOUDY    79  64  61 S15G22    29.94S
FARIBAULT      CLOUDY    81  66  61 SE18      29.93S
$$

...ELSEWHERE IN MINNESOTA...


CITY           SKY/WX    TMP DP  RH WIND       PRES   REMARKS
MINNEAPOLIS    CLOUDY    83  68  60 S22G28    29.89F
INTNL FALLS    PTSUNNY   83  69  62 S7G18     29.76S
DULUTH         MOSUNNY   84  67  56 S14       29.89S
RED WING       CLOUDY    84  63  48 S12G21    29.92S
REDWOOD FALLS  PTSUNNY   79  70  74 SE13      29.84F
MANKATO        CLOUDY    79  66  65 SE15G23   29.89S
WORTHINGTON    LGT RAIN  67  64  90 S20G30    29.88R
FAIRMONT       CLOUDY    76  69  79 S16       29.90R
$$

...SOUTHWEST WISCONSIN...


CITY           SKY/WX    TMP DP  RH WIND       PRES   REMARKS
LA CROSSE      MOSUNNY   83  70  64 S14       29.98F
PRAIRIE DU CHI SUNNY     81  59  47 SE12G17   30.02F
BOSCOBEL       MOSUNNY   82  63  52 S10G16    30.04F
LONE ROCK      MOSUNNY   80  64  58 S10G22    30.06F
PLATTEVILLE    MOSUNNY   80  67  65 S16G22    30.07F
FORT MC COY    MOSUNNY   81  64  55 S12G21    30.03S
CAMP DOUGLAS   PTSUNNY   81  64  57 S13       30.04F
MAUSTON-NEW LI PTCLDY    81  64  57 S9G18     30.04F
VIROQUA        FAIR      80  62  54 S12G18    30.05S
WIS DELLS      MOSUNNY   78  62  56 S12G18    30.07S
$$

...ELSEWHERE IN WISCONSIN...


CITY           SKY/WX    TMP DP  RH WIND       PRES   REMARKS
MILWAUKEE      MOSUNNY   84  58  40 S15       30.11F
MADISON        PTSUNNY   79  60  52 S17       30.08F
GREEN BAY      MOSUNNY   79  64  60 S15       30.07F
EAU CLAIRE     MOSUNNY   82  65  56 S17G24    29.96F
BLACK RVR FLS  FAIR      81  62  51 S6        30.01S
MEDFORD        MOSUNNY   78  64  62 S14G21    30.03S
WAUSAU         SUNNY     80  61  52 S17G25    30.03F
WIS RAPIDS     MOSUNNY   81  64  56 SW13G21   30.06F
MARSHFIELD     MOSUNNY   82  62  50 S17G25    30.03F
RICE LAKE      MOSUNNY   79  66  64 S9G17     29.97S
$$

...NORTHEAST IOWA...


CITY           SKY/WX    TMP DP  RH WIND       PRES   REMARKS
WATERLOO       MOSUNNY   79  64  60 S20       29.98F
DUBUQUE        MOSUNNY   77  65  66 S14G21    30.07F
DECORAH        MOSUNNY   79  64  61 S14G22    30.00F
MASON CITY     CLOUDY    77  65  66 SE21G29   29.96F
CHARLES CITY   MOSUNNY   77  66  69 S16G24    29.98F
OELWEIN        PTSUNNY   77  66  69 S14G23    30.02F
$$

...ELSEWHERE IN IOWA...


CITY           SKY/WX    TMP DP  RH WIND       PRES   REMARKS
DES MOINES     CLOUDY    79  71  76 S14G23    29.96F
IOWA CITY      PTSUNNY   79  68  69 S14       30.05F
FORT DODGE     CLOUDY    79  68  69 S8G18     29.92F
MARSHALLTOWN   CLOUDY    79  68  69 SE20G28   29.96F
CEDAR RAPIDS   CLOUDY    77  69  76 SE8G20    30.03F
$$

...NORTHERN ILLINOIS...


CITY           SKY/WX    TMP DP  RH WIND       PRES   REMARKS
CHICAGO-OHARE  MOSUNNY   80  60  50 S16G22    30.13F
CHICAGO-MIDWAY PTSUNNY   82  59  45 S14       30.14F
MOLINE         MOSUNNY   80  65  59 S17G23    30.08F
ROCKFORD       MOSUNNY   81  62  52 S20       30.12F
PEORIA         CLOUDY    79  66  64 S14G22    30.12F
$$

NOTE: "FAIR" INDICATES FEW OR NO CLOUDS BELOW 12,000 FEET WITH NO
SIGNIFICANT WEATHER AND/OR OBSTRUCTIONS TO VISIBILITY. WIND
SPEEDS ARE IN MILES-PER-HOUR.




USA.gov is the U.S. government's official web portal to all federal, state and local government web resources and services.